GW4109 Weather Reports


time (UTC)temp
F
wind
direction
speed
knots
gust
knots
rain 1hr
in
rain 24hr
in
rain mn
in
humidity
%
barometer
mb
20260509034038 87 76 1.7 1.7 0.00 0.00 0.00 14 1012.8
20260509033536 87 109 1.7 2.6 0.00 0.00 0.00 13 1012.9
20260509033032 88 163 0.9 2.6 0.00 0.00 0.00 13 1012.9
20260509032529 89 155 1.7 3.5 0.00 0.00 0.00 12 1012.8
20260509032027 91 182 0.9 5.2 0.00 0.00 0.00 11 1012.7
20260509031524 89 246 5.2 7.0 0.00 0.00 0.00 12 1012.7
20260509031021 90 248 3.5 8.7 0.00 0.00 0.00 12 1012.7
20260509030519 90 262 2.6 7.0 0.00 0.00 0.00 12 1012.7
20260509030016 89 285 4.3 7.0 0.00 0.00 0.00 12 1012.6
20260509025512 91 246 3.5 5.2 0.00 0.00 0.00 12 1012.5
20260509025007 90 267 0.9 7.0 0.00 0.00 0.00 13 1012.4
20260509024503 91 243 3.5 5.2 0.00 0.00 0.00 12 1012.1
20260509024000 91 236 4.3 10.4 0.00 0.00 0.00 13 1012.3
20260509023458 91 256 5.2 7.0 0.00 0.00 0.00 13 1012.2
20260509022954 91 266 6.1 9.6 0.00 0.00 0.00 13 1012.1
20260509022451 91 257 3.5 5.2 0.00 0.00 0.00 13 1012.4
20260509021949 91 291 3.5 7.0 0.00 0.00 0.00 13 1012.3
20260509021445 91 243 7.8 9.6 0.00 0.00 0.00 12 1012.1
20260509020943 92 265 3.5 7.8 0.00 0.00 0.00 12 1012.1
20260509020441 92 243 8.7 9.6 0.00 0.00 0.00 13 1012.2
20260509015938 92 253 6.1 9.6 0.00 0.00 0.00 13 1012.2
20260509015437 93 288 1.7 4.3 0.00 0.00 0.00 12 1012.1
20260509014933 92 258 3.5 8.7 0.00 0.00 0.00 13 1012.1
20260509014429 93 304 6.1 8.7 0.00 0.00 0.00 12 1012.2
20260509013926 93 287 7.0 9.6 0.00 0.00 0.00 12 1012.0
20260509013423 93 298 5.2 7.0 0.00 0.00 0.00 12 1012.0
20260509012918 94 265 5.2 10.4 0.00 0.00 0.00 12 1011.7
20260509012415 95 306 8.7 9.6 0.00 0.00 0.00 11 1012.1
20260509011913 97 262 6.1 8.7 0.00 0.00 0.00 11 1012.0
20260509011410 97 308 4.3 8.7 0.00 0.00 0.00 11 1012.0
20260509010908 96 312 10.4 13.9 0.00 0.00 0.00 11 1012.0
20260509010405 97 337 2.6 8.7 0.00 0.00 0.00 12 1011.8
20260509005902 97 327 6.1 10.4 0.00 0.00 0.00 11 1011.7
20260509005400 97 306 8.7 13.0 0.00 0.00 0.00 10 1011.8
20260509004900 97 331 10.4 13.9 0.00 0.00 0.00 11 1012.0
20260509004356 97 296 7.8 14.8 0.00 0.00 0.00 11 1011.8
20260509003854 97 323 7.0 14.8 0.00 0.00 0.00 10 1012.0
20260509003351 98 294 5.2 12.2 0.00 0.00 0.00 11 1012.0
20260509002848 98 319 7.0 15.6 0.00 0.00 0.00 11 1012.0
20260509002346 98 329 4.3 11.3 0.00 0.00 0.00 10 1012.0
20260509001844 98 304 11.3 15.6 0.00 0.00 0.00 11 1012.0
20260509001339 98 316 10.4 13.0 0.00 0.00 0.00 11 1011.7
20260509000837 98 311 12.2 19.1 0.00 0.00 0.00 11 1012.0
20260509000335 98 314 9.6 13.9 0.00 0.00 0.00 11 1011.7
20260508235831 98 307 7.0 14.8 0.00 0.00 0.00 12 1011.8
20260508235328 99 329 8.7 13.9 0.00 0.00 0.00 12 1011.8
20260508234825 99 288 6.1 11.3 0.00 0.00 0.00 12 1012.1
20260508234321 98 252 8.7 13.0 0.00 0.00 0.00 12 1012.1
20260508233820 99 290 5.2 15.6 0.00 0.00 0.00 12 1011.8
20260508233319 100 278 7.8 11.3 0.00 0.00 0.00 12 1012.1
20260508232815 99 281 7.8 15.6 0.00 0.00 0.00 12 1012.2
20260508232311 99 293 4.3 11.3 0.00 0.00 0.00 11 1012.0
20260508231810 99 274 7.8 17.4 0.00 0.00 0.00 12 1011.8
20260508231306 99 267 6.1 17.4 0.00 0.00 0.00 12 1012.2
20260508230803 100 278 5.2 15.6 0.00 0.00 0.00 12 1012.0
20260508230259 101 280 5.2 16.5 0.00 0.00 0.00 12 1012.0
20260508225757 100 249 8.7 18.2 0.00 0.00 0.00 12 1012.3
20260508225253 102 263 7.8 13.9 0.00 0.00 0.00 11 1012.3
20260508224751 102 275 7.0 17.4 0.00 0.00 0.00 11 1012.4
20260508224248 101 263 12.2 20.0 0.00 0.00 0.00 10 1012.2
20260508223746 101 247 13.0 14.8 0.00 0.00 0.00 10 1012.4
20260508223243 101 250 16.5 20.9 0.00 0.00 0.00 11 1012.5
20260508222741 101 242 13.0 18.2 0.00 0.00 0.00 11 1012.6
20260508222238 102 288 4.3 17.4 0.00 0.00 0.00 10 1012.5
20260508221734 102 255 7.8 14.8 0.00 0.00 0.00 10 1012.5
20260508221230 102 243 15.6 18.2 0.00 0.00 0.00 11 1012.6
20260508220726 102 282 6.1 13.9 0.00 0.00 0.00 10 1012.5
20260508220223 101 249 13.0 18.2 0.00 0.00 0.00 10 1012.8
20260508215719 102 248 14.8 20.0 0.00 0.00 0.00 10 1012.8
20260508215216 102 245 14.8 16.5 0.00 0.00 0.00 10 1012.8
20260508214713 102 252 17.4 18.2 0.00 0.00 0.00 10 1012.8
20260508214211 104 246 7.8 12.2 0.00 0.00 0.00 10 1012.8
20260508213707 102 260 9.6 13.0 0.00 0.00 0.00 10 1012.9
20260508213203 102 254 7.8 13.0 0.00 0.00 0.00 10 1013.1
20260508212700 102 237 7.8 17.4 0.00 0.00 0.00 11 1013.0
20260508212156 103 240 13.0 13.9 0.00 0.00 0.00 10 1013.0
20260508211652 102 261 13.0 19.1 0.00 0.00 0.00 11 1013.2
20260508211148 103 239 10.4 14.8 0.00 0.00 0.00 11 1013.3
20260508210645 103 265 11.3 14.8 0.00 0.00 0.00 10 1013.5
20260508210143 102 234 10.4 13.0 0.00 0.00 0.00 11 1013.5
20260508205640 102 265 8.7 13.9 0.00 0.00 0.00 11 1013.3
20260508205136 103 256 9.6 11.3 0.00 0.00 0.00 11 1013.5
20260508204632 103 276 2.6 12.2 0.00 0.00 0.00 10 1013.4
20260508204128 104 324 6.1 9.6 0.00 0.00 0.00 10 1013.3
20260508203625 102 305 7.0 8.7 0.00 0.00 0.00 11 1013.6
20260508203121 102 333 7.8 10.4 0.00 0.00 0.00 11 1013.5
20260508202617 102 313 7.0 11.3 0.00 0.00 0.00 10 1013.5
20260508202115 102 217 4.3 12.2 0.00 0.00 0.00 11 1013.4
20260508201611 103 286 7.8 13.0 0.00 0.00 0.00 10 1013.6
20260508201108 102 316 5.2 12.2 0.00 0.00 0.00 11 1013.6
20260508200605 102 312 7.8 12.2 0.00 0.00 0.00 11 1013.7
20260508195557 102 296 9.6 14.8 0.00 0.00 0.00 11 1013.7
20260508195054 101 314 8.7 12.2 0.00 0.00 0.00 11 1013.7
20260508194551 101 289 5.2 13.9 0.00 0.00 0.00 12 1013.8
20260508194048 102 316 7.8 10.4 0.00 0.00 0.00 12 1013.9
20260508193544 103 246 7.8 10.4 0.00 0.00 0.00 11 1014.0
20260508193041 102 304 4.3 12.2 0.00 0.00 0.00 11 1013.9
20260508192538 101 261 7.0 13.9 0.00 0.00 0.00 11 1014.0
20260508192035 102 320 9.6 13.0 0.00 0.00 0.00 10 1014.0
20260508191532 102 338 2.6 5.2 0.00 0.00 0.00 11 1014.1
20260508191028 102 325 6.1 8.7 0.00 0.00 0.00 11 1014.1
20260508190526 101 356 1.7 9.6 0.00 0.00 0.00 11 1014.3
20260508190022 102 257 0.9 4.3 0.00 0.00 0.00 11 1014.3
20260508185519 104 228 0.9 2.6 0.00 0.00 0.00 12 1014.4
20260508185017 103 320 0.9 2.6 0.00 0.00 0.00 13 1014.3
20260508184514 102 44 0.0 1.7 0.00 0.00 0.00 12 1014.4
20260508184011 101 53 2.6 5.2 0.00 0.00 0.00 12 1014.5
20260508183507 101 93 2.6 5.2 0.00 0.00 0.00 13 1014.5
20260508183003 101 130 3.5 3.5 0.00 0.00 0.00 12 1014.3
20260508182500 101 119 4.3 5.2 0.00 0.00 0.00 12 1014.6
20260508181956 101 105 2.6 7.0 0.00 0.00 0.00 13 1014.5
20260508181452 100 174 2.6 3.5 0.00 0.00 0.00 13 1014.5
20260508180950 101 191 2.6 3.5 0.00 0.00 0.00 13 1014.6
20260508180446 100 109 3.5 5.2 0.00 0.00 0.00 13 1014.7
20260508175942 100 309 3.5 3.5 0.00 0.00 0.00 14 1014.8
20260508175439 100 161 0.9 6.1 0.00 0.00 0.00 13 1014.8
20260508174937 100 216 2.6 3.5 0.00 0.00 0.00 13 1014.8
20260508174434 99 180 1.7 4.3 0.00 0.00 0.00 13 1014.9
20260508173931 100 80 0.9 4.3 0.00 0.00 0.00 13 1014.9
20260508173428 99 160 0.9 4.3 0.00 0.00 0.00 13 1014.8
20260508172923 99 108 1.7 4.3 0.00 0.00 0.00 13 1014.7
20260508172422 98 107 1.7 5.2 0.00 0.00 0.00 14 1014.8
20260508171917 98 182 1.7 5.2 0.00 0.00 0.00 14 1014.7
20260508171414 98 145 1.7 4.3 0.00 0.00 0.00 14 1014.9
20260508170910 98 102 2.6 4.3 0.00 0.00 0.00 15 1015.0
20260508170408 99 114 3.5 3.5 0.00 0.00 0.00 14 1014.9
20260508165904 98 208 1.7 3.5 0.00 0.00 0.00 15 1014.9
20260508165403 97 239 2.6 2.6 0.00 0.00 0.00 15 1014.9
20260508164858 96 170 2.6 4.3 0.00 0.00 0.00 16 1015.1
20260508164355 96 135 1.7 3.5 0.00 0.00 0.00 16 1015.2
20260508163853 96 111 0.0 4.3 0.00 0.00 0.00 16 1015.1
20260508163350 95 188 2.6 3.5 0.00 0.00 0.00 17 1015.2
20260508162845 95 111 0.9 3.5 0.00 0.00 0.00 17 1015.1
20260508162342 95 177 0.0 2.6 0.00 0.00 0.00 17 1015.1
20260508161839 93 171 1.7 1.7 0.00 0.00 0.00 17 1015.0
20260508161337 94 100 1.7 2.6 0.00 0.00 0.00 17 1015.1
20260508160834 93 169 1.7 3.5 0.00 0.00 0.00 18 1015.1
20260508160333 92 197 1.7 2.6 0.00 0.00 0.00 19 1015.2
20260508155828 92 105 1.7 1.7 0.00 0.00 0.00 19 1015.2
20260508155326 92 78 1.7 3.5 0.00 0.00 0.00 19 1015.1
20260508154822 92 70 1.7 2.6 0.00 0.00 0.00 19 1015.2
20260508154320 91 63 0.9 2.6 0.00 0.00 0.00 20 1015.0
20260508153816 90 47 0.9 3.5 0.00 0.00 0.00 20 1015.1
20260508153314 90 110 4.3 4.3 0.00 0.00 0.00 20 1015.2
20260508152810 89 93 1.7 2.6 0.00 0.00 0.00 20 1015.3
20260508152306 90 89 2.6 3.5 0.00 0.00 0.00 20 1015.2
20260508151802 89 198 0.0 5.2 0.00 0.00 0.00 21 1015.2
20260508151300 90 357 0.9 1.7 0.00 0.00 0.00 20 1015.2
20260508150756 90 101 1.7 2.6 0.00 0.00 0.00 20 1015.1
20260508150253 89 17 0.0 1.7 0.00 0.00 0.00 21 1015.2
20260508145749 88 83 0.0 1.7 0.00 0.00 0.00 21 1015.1
20260508145245 87 93 4.3 4.3 0.00 0.00 0.00 22 1015.0
20260508144742 87 294 1.7 1.7 0.00 0.00 0.00 22 1015.1
20260508144240 86 164 0.0 1.7 0.00 0.00 0.00 23 1015.1
20260508143737 86 231 0.0 1.7 0.00 0.00 0.00 23 1015.0
20260508143234 84 276 0.0 3.5 0.00 0.00 0.00 24 1015.1
20260508142730 86 89 0.0 1.7 0.00 0.00 0.00 23 1015.0
20260508142228 84 214 0.9 1.7 0.00 0.00 0.00 24 1015.0
20260508141724 84 24 0.9 0.9 0.00 0.00 0.00 24 1015.1
20260508141222 82 308 0.9 1.7 0.00 0.00 0.00 25 1015.0
20260508140719 80 106 0.0 1.7 0.00 0.00 0.00 26 1014.7
20260508140215 80 262 1.7 1.7 0.00 0.00 0.00 27 1015.0
20260508135712 78 12 0.0 2.6 0.00 0.00 0.00 28 1015.0
20260508135207 80 4 0.0 1.7 0.00 0.00 0.00 27 1014.7
20260508134703 79 111 0.9 1.7 0.00 0.00 0.00 28 1014.5
20260508134201 78 276 0.0 1.7 0.00 0.00 0.00 27 1014.6
20260508133658 75 190 1.7 1.7 0.00 0.00 0.00 29 1014.6
20260508133155 75 66 0.0 1.7 0.00 0.00 0.00 28 1014.5
20260508132653 74 218 0.0 1.7 0.00 0.00 0.00 30 1014.5
20260508132149 71 200 1.7 1.7 0.00 0.00 0.00 31 1014.4
20260508131645 71 221 1.7 1.7 0.00 0.00 0.00 31 1014.4
20260508131142 72 215 0.0 2.6 0.00 0.00 0.00 31 1014.4
20260508130638 72 109 0.9 1.7 0.00 0.00 0.00 31 1014.2
20260508130136 73 113 0.0 1.7 0.00 0.00 0.00 30 1014.2
20260508125631 72 204 0.0 2.6 0.00 0.00 0.00 30 1014.2
20260508125128 72 81 0.9 1.7 0.00 0.00 0.00 31 1014.1
20260508124626 73 148 0.9 1.7 0.00 0.00 0.00 30 1014.2
20260508124123 73 118 1.7 2.6 0.00 0.00 0.00 30 1013.9
20260508123621 74 79 0.9 1.7 0.00 0.00 0.00 30 1013.9
20260508123118 75 234 0.9 1.7 0.00 0.00 0.00 30 1013.9
20260508122614 75 199 0.0 1.7 0.00 0.00 0.00 29 1013.9
20260508122112 74 268 0.0 1.7 0.00 0.00 0.00 30 1013.7
20260508121610 74 174 1.7 1.7 0.00 0.00 0.00 30 1014.0
20260508121108 74 221 1.7 3.5 0.00 0.00 0.00 30 1013.9
20260508120605 75 345 0.9 2.6 0.00 0.00 0.00 28 1014.0
20260508120104 77 333 1.7 1.7 0.00 0.00 0.00 28 1013.9
20260508115601 77 69 0.0 0.9 0.00 0.00 0.00 28 1013.7
20260508115057 77 289 1.7 2.6 0.00 0.00 0.00 27 1013.8
20260508114554 79 27 4.3 4.3 0.00 0.00 0.00 26 1013.9
20260508114050 77 111 2.6 4.3 0.00 0.00 0.00 27 1013.7
20260508113548 75 291 1.7 1.7 0.00 0.00 0.00 28 1013.8
20260508113046 73 205 0.0 2.6 0.00 0.00 0.00 30 1013.7
20260508112542 74 15 1.7 1.7 0.00 0.00 0.00 32 1013.7
20260508112039 75 221 0.9 1.7 0.00 0.00 0.00 29 1013.7
20260508111536 75 324 1.7 1.7 0.00 0.00 0.00 29 1014.0
20260508111033 74 178 1.7 2.6 0.00 0.00 0.00 29 1013.8
20260508110531 76 353 0.0 1.7 0.00 0.00 0.00 28 1013.7
20260508110027 77 342 1.7 1.7 0.00 0.00 0.00 28 1013.6
20260508105522 78 16 1.7 3.5 0.00 0.00 0.00 27 1013.6
20260508105019 76 142 2.6 3.5 0.00 0.00 0.00 27 1013.6
20260508104517 76 39 1.7 1.7 0.00 0.00 0.00 28 1013.7
20260508104013 77 345 0.9 1.7 0.00 0.00 0.00 27 1013.6
20260508103510 78 246 0.0 2.6 0.00 0.00 0.00 26 1013.6
20260508103008 76 320 0.0 1.7 0.00 0.00 0.00 28 1013.7
20260508102505 78 62 1.7 2.6 0.00 0.00 0.00 27 1013.5
20260508102002 77 109 0.9 1.7 0.00 0.00 0.00 27 1013.9
20260508101500 77 103 0.0 1.7 0.00 0.00 0.00 27 1013.7
20260508100957 77 73 0.0 1.7 0.00 0.00 0.00 27 1013.9
20260508100455 77 343 0.0 2.6 0.00 0.00 0.00 27 1013.9
20260508095951 78 237 0.0 1.7 0.00 0.00 0.00 26 1013.7
20260508095449 77 129 0.9 2.6 0.00 0.00 0.00 27 1013.9
20260508094946 77 291 1.7 5.2 0.00 0.00 0.00 26 1013.8
20260508094442 78 92 2.6 3.5 0.00 0.00 0.00 26 1013.7
20260508093939 79 89 0.9 1.7 0.00 0.00 0.00 26 1013.9
20260508093437 80 121 0.9 1.7 0.00 0.00 0.00 25 1013.9
20260508092934 79 19 0.9 2.6 0.00 0.00 0.00 25 1014.0
20260508092432 79 268 1.7 3.5 0.00 0.00 0.00 25 1013.9
20260508091930 78 171 0.9 2.6 0.00 0.00 0.00 26 1014.0
20260508091426 78 141 1.7 2.6 0.00 0.00 0.00 26 1014.0
20260508090923 80 210 0.0 0.9 0.00 0.00 0.00 25 1013.9
20260508090422 81 89 2.6 4.3 0.00 0.00 0.00 24 1014.0
20260508085917 82 243 0.0 3.5 0.00 0.00 0.00 23 1013.9
20260508085414 81 98 3.5 4.3 0.00 0.00 0.00 23 1013.8
20260508084911 79 353 2.6 3.5 0.00 0.00 0.00 24 1014.0
20260508084408 80 128 0.9 3.5 0.00 0.00 0.00 24 1014.0
20260508083906 78 230 2.6 2.6 0.00 0.00 0.00 24 1014.1
20260508083403 79 324 0.0 0.9 0.00 0.00 0.00 24 1014.3
20260508082903 78 174 0.0 1.7 0.00 0.00 0.00 24 1014.3
20260508082401 79 264 1.7 3.5 0.00 0.00 0.00 24 1014.3
20260508081858 80 226 1.7 2.6 0.00 0.00 0.00 24 1014.3
20260508081355 80 141 1.7 4.3 0.00 0.00 0.00 24 1014.5
20260508080851 80 271 0.9 3.5 0.00 0.00 0.00 24 1014.6
20260508080350 80 313 2.6 3.5 0.00 0.00 0.00 24 1014.5
20260508075846 80 161 1.7 3.5 0.00 0.00 0.00 24 1014.5
20260508075343 80 72 1.7 3.5 0.00 0.00 0.00 24 1014.6
20260508074840 80 60 0.0 0.9 0.00 0.00 0.00 24 1014.5
20260508074337 81 273 0.9 2.6 0.00 0.00 0.00 23 1014.7
20260508073834 81 154 2.6 3.5 0.00 0.00 0.00 23 1014.6
20260508073332 82 77 1.7 3.5 0.00 0.00 0.00 22 1014.6
20260508072828 82 229 2.6 4.3 0.00 0.00 0.00 22 1014.6
20260508072325 83 232 5.2 7.8 0.00 0.00 0.00 22 1014.7
20260508071822 83 112 2.6 3.5 0.00 0.00 0.00 21 1014.6
20260508071320 83 323 2.6 6.1 0.00 0.00 0.00 21 1014.7
20260508070817 82 84 6.1 7.0 0.00 0.00 0.00 22 1014.5
20260508070316 84 275 0.0 1.7 0.00 0.00 0.00 21 1014.5
20260508065813 83 323 3.5 4.3 0.00 0.00 0.00 22 1014.9
20260508065311 84 280 1.7 7.8 0.00 0.00 0.00 21 1014.7
20260508064809 86 234 0.0 2.6 0.00 0.00 0.00 20 1014.6
20260508064306 88 259 5.2 10.4 0.00 0.00 0.00 19 1014.3
20260508063803 87 325 5.2 7.0 0.00 0.00 0.00 18 1014.6
20260508063301 85 109 9.6 13.0 0.00 0.00 0.00 19 1014.7
20260508062758 86 194 2.6 6.1 0.00 0.00 0.00 20 1014.4
20260508062256 89 282 6.1 12.2 0.00 0.00 0.00 17 1014.1
20260508061752 88 235 9.6 13.9 0.00 0.00 0.00 18 1014.5
20260508061249 89 94 6.1 18.2 0.00 0.00 0.00 17 1014.6
20260508060746 89 327 5.2 13.9 0.00 0.00 0.00 17 1014.4
20260508060244 87 309 7.8 14.8 0.00 0.00 0.00 18 1014.6
20260508055739 90 289 7.8 19.1 0.00 0.00 0.00 16 1014.3
20260508055236 89 247 9.6 14.8 0.00 0.00 0.00 16 1014.4
20260508054733 89 328 9.6 13.0 0.00 0.00 0.00 16 1014.4
20260508054226 88 230 7.0 16.5 0.00 0.00 0.00 20 1014.7
20260508053722 90 237 5.2 17.4 0.00 0.00 0.00 17 1014.5
20260508053220 90 252 9.6 13.0 0.00 0.00 0.00 16 1014.6
20260508052717 89 303 7.8 9.6 0.00 0.00 0.00 16 1014.3
20260508052213 89 266 7.0 11.3 0.00 0.00 0.00 16 1014.6
20260508051710 90 179 7.0 17.4 0.00 0.00 0.00 19 1014.6
20260508051205 89 269 6.1 14.8 0.00 0.00 0.00 16 1014.6
20260508050702 89 230 15.6 20.0 0.00 0.00 0.00 17 1014.5
20260508050200 89 226 20.9 25.2 0.00 0.00 0.00 17 1014.3
20260508045700 89 249 7.8 14.8 0.00 0.00 0.00 16 1014.6
20260508045158 90 276 4.3 19.1 0.00 0.00 0.00 16 1014.5
20260508044655 89 251 12.2 13.9 0.00 0.00 0.00 17 1014.5
20260508044151 90 273 10.4 21.7 0.00 0.00 0.00 17 1014.4
20260508043647 89 273 7.8 15.6 0.00 0.00 0.00 17 1014.2
20260508043146 89 256 11.3 17.4 0.00 0.00 0.00 17 1014.5
20260508042642 89 236 19.1 20.0 0.00 0.00 0.00 16 1014.3
20260508042139 89 247 14.8 16.5 0.00 0.00 0.00 17 1014.5
20260508041635 89 244 11.3 21.7 0.00 0.00 0.00 18 1014.3
20260508041132 89 292 6.1 15.6 0.00 0.00 0.00 19 1014.1
20260508040629 89 265 12.2 16.5 0.00 0.00 0.00 17 1014.0
20260508040127 89 297 9.6 17.4 0.00 0.00 0.00 18 1013.9
20260508035624 89 287 7.0 20.0 0.00 0.00 0.00 19 1013.7
20260508035121 89 275 7.0 17.4 0.00 0.00 0.00 19 1013.7
20260508034618 89 301 13.9 16.5 0.00 0.00 0.00 20 1013.7